Flag for Switzerland Weather past 2 weeks in Pratteln, Basel-Land, Switzerland

Now
59 °F

Light rain. Broken clouds.


Feels Like: 58 °F
Forecast: 54 / 82 °F
Wind: 6 mph from Southeast

Location: Bale-Mulhouse

Current Time: Aug 1, 2015 at 10:16:17 AM

Latest Report: Aug 1, 2015 at 9:30 AM


Visibility: N/A

Pressure: 30.01 "Hg

Humidity: 100%

Dew point: 59 °F

Location of PrattelnLocation

Historic Weather in Pratteln — Graph

°F

Pratteln temperature yesterday

Maximum temperature yesterday: 73 °F (at 2:00 PM)
Minimum temperature yesterday: 46 °F (at 6:00 AM)
Average temperature yesterday: 62 °F

Past Weeks' High & Low Weather Summary

 TemperatureHumidityPressure
High97 °F (Jul 17, 3:00 PM)100% (Jul 26, 5:00 AM)30.15 "Hg (Jul 26, 5:00 AM)
Low46 °F (Jul 26, 6:00 AM)22% (Jul 17, 4:30 PM)29.71 "Hg (Jul 24, 5:30 PM)
Average70 °F64%29.96 "Hg
* Reported Jul 17 9:00 AM — Aug 1 9:00 AM, Pratteln, Weather by CustomWeather, © 2015

Note: Actual official high and low records may vary slightly from our data, if they occured in-between our weather recording intervals... More about our weather records

Advertising

Pratteln weather history for previous 24 hours

 ConditionsComfort  
Time TempWeatherWind HumidityBarometerVisibility
9:00 AM
Sat, Aug 1
59 °FLight rain. Overcast.5 mph94%29.98 "HgN/A
8:30 AM59 °FLight rain. Clear.6 mph94%29.98 "HgN/A
8:00 AM57 °FLight rain. Clear.6 mph94%29.98 "HgN/A
7:30 AM57 °FLight rain. Clear.5 mph88%29.98 "HgN/A
7:00 AM57 °FLight rain. Clear.2 mph88%29.95 "HgN/A
6:30 AM57 °FLight rain. Clear.3 mph82%29.95 "HgN/A
6:00 AM57 °FClear.3 mph77%29.92 "Hg10 mi
5:30 AM55 °FClear.No wind82%29.92 "Hg10 mi
5:00 AM55 °FLight rain. Clear.1 mph82%29.92 "HgN/A
4:30 AM55 °FClear.2 mph88%29.89 "Hg10 mi
4:00 AM55 °FClear.3 mph82%29.89 "Hg10 mi
3:30 AM54 °FClear.3 mph88%29.89 "Hg10 mi
3:00 AM54 °FClear.1 mph88%29.89 "Hg10 mi
2:30 AM54 °FClear.2 mph82%29.92 "Hg10 mi
2:00 AM55 °FClear.1 mph77%29.92 "Hg10 mi
1:30 AM55 °FClear.3 mph77%29.92 "Hg10 mi
1:00 AM57 °FPassing clouds.5 mph72%29.92 "HgN/A
12:30 AM59 °FClear.3 mph68%29.92 "Hg10 mi
11:00 PM
Fri, Jul 31
64 °FPassing clouds.3 mph56%29.92 "HgN/A
10:30 PM64 °FPassing clouds.3 mph56%29.92 "HgN/A
10:00 PM66 °FSunny.6 mph52%29.92 "Hg10 mi
9:30 PM66 °FSunny.7 mph52%29.92 "Hg10 mi
9:00 PM68 °FSunny.8 mph49%29.92 "Hg10 mi
8:30 PM68 °FPassing clouds.8 mph49%29.92 "HgN/A
8:00 PM70 °FPassing clouds.8 mph46%29.92 "HgN/A
7:30 PM72 °FPassing clouds.9 mph47%29.92 "HgN/A
7:00 PM73 °FPassing clouds.8 mph44%29.92 "HgN/A
6:30 PM73 °FPassing clouds.9 mph44%29.92 "HgN/A
6:00 PM73 °FPassing clouds.9 mph44%29.92 "HgN/A
5:30 PM73 °FPassing clouds.9 mph44%29.92 "HgN/A
5:00 PM73 °FPassing clouds.9 mph44%29.92 "HgN/A
4:30 PM73 °FPassing clouds.9 mph44%29.92 "HgN/A
4:00 PM73 °FPassing clouds.9 mph44%29.95 "HgN/A
3:30 PM73 °FPassing clouds.8 mph44%29.95 "HgN/A
3:00 PM73 °FPassing clouds.12 mph44%29.98 "HgN/A
2:30 PM73 °FPassing clouds.10 mph41%29.98 "HgN/A
2:00 PM73 °FPassing clouds.8 mph38%29.98 "HgN/A
1:30 PM72 °FPassing clouds.8 mph44%30.01 "HgN/A
1:00 PM70 °FPartly sunny.8 mph43%30.01 "HgN/A
12:30 PM68 °FPartly sunny.7 mph49%30.01 "HgN/A
12:00 PM66 °FPartly sunny.8 mph52%30.04 "HgN/A
11:30 AM64 °FPartly sunny.6 mph56%30.04 "HgN/A
11:00 AM64 °FPassing clouds.7 mph52%30.04 "HgN/A
10:00 AM61 °FPassing clouds.6 mph59%30.04 "HgN/A
Weather by CustomWeather, © 2015

See weather overviewHow to use our weather pages